sat.trackr.live / text

‹ back to catalog

ONEWEB-0707

NORAD 61612 · 2024-188U

PAYLOAD ACTIVE UNKNOWN

§ Identity

Operator
Country
UK
Launch date
2024-10-20
Launch site
AFWTR
Launch vehicle
Mass (kg)
RCS (m²)

Purposes: comms

External: N2YO · Heavens-Above · Gunter

§ Orbital elements

Epoch: 2026-05-25T03:48:47.263968Z

Period
109.89 min
Inclination
87.8861°
Eccentricity
0.0001402
Mean motion
13.10374115 rev/d
Perigee alt
1,220.6 km
Apogee alt
1,222.8 km
Semi-major
7,599.8 km
B*
1.8767e-3
RAAN
40.8419°
Arg perigee
94.5590°
Mean anomaly
265.5698°
Rev number
8,030

§ Raw data

ONEWEB-07071 61612U 24188U   26145.15888037  .00000668  00000+0  18767-2 0  99972 61612  87.8861  40.8419 0001402  94.5590 265.5698 13.10374115 80309

JSON: /api/v1/satellites/61612 · /tle

For live sub-satellite position, see the globe view (requires WebGL).

§ Visibility from observer

Set your observer location to see the next 7 days of passes ≥ 10°. The values pass through the URL so the page stays shareable.

No JS? Fill the form by hand. The geolocation button needs JavaScript.